www.pogodaiklimat.ru
ПОГОДА в Индиане
Время
и дата
11:35 28.09
11:55 28.09
12:15 28.09
12:35 28.09
12:55 28.09
13:15 28.09
13:35 28.09
13:55 28.09
14:15 28.09
14:35 28.09
14:55 28.09
15:15 28.09
15:35 28.09
15:55 28.09
16:15 28.09
16:35 28.09
16:55 28.09
17:15 28.09
17:35 28.09
17:55 28.09
18:15 28.09
18:35 28.09
18:55 28.09
19:15 28.09
19:35 28.09
19:55 28.09
20:15 28.09
20:35 28.09
20:55 28.09
21:15 28.09
21:35 28.09
21:55 28.09
22:15 28.09
22:35 28.09
22:55 28.09
23:15 28.09
23:35 28.09
23:55 28.09
00:15 29.09
00:35 29.09
00:55 29.09
01:15 29.09
01:35 29.09
01:55 29.09
02:15 29.09
02:35 29.09
02:55 29.09
03:15 29.09
Ветер
(напр.,м/с)
Видим. Явления Облачность Т
(С)
Тd
(С)
f
(%)
Тe
(С)
Тes
(С)
Комфортность P
(гПа)
Po
(гПа)
Тmin
(С)
Tmax
(С)
R
(мм)
R24
(мм)
S
(см)
ЮЗ 3 5 км дымка 10/10 120 м +10.0 +10.0 100 +8 +8 974.8
ЮЗ 3 10 км дымка 10/10 120 м +10.0 +10.0 100 +8 +8 974.8
З 2 13 км 10/10 180 м +11.0 +11.0 100 +10 +10 974.8
ЮЗ 4 16 км 10/10 240 м +12.0 +11.0 94 +10 +10 974.8
ЮЗ 3 14 км 10/10 300 м +12.0 +11.0 94 +10 +10 974.8
ЮЗ 4 16 км 10/10 390 м +13.0 +11.0 88 +11 +11 974.5
З 4 16 км 10/10 390 м +13.0 +11.0 88 +11 +11 974.2
З 3
{6}
16 км 10/10 450 м +14.0 +11.0 82 +13 +13 974.2
З 5 16 км 10/10 510 м +14.0 +11.0 82 +12 +12 974.2
З 5 16 км 10/8 600 m
[Ac]
+16.0 +11.0 72 +15 +15 974.5
З 5 16 км 10/10 690 м +15.0 +10.0 72 +14 +14 974.5
З 5 16 км 8/8 690 м +15.0 +10.0 72 +14 +14 974.5
СЗ 4
{7}
16 км 10/8 690 m
[Ac]
+15.0 +11.0 77 +14 +14 974.8
СЗ 4 16 км 8/8 840 м +15.0 +10.0 72 +14 +15 974.8
СЗ 3 16 км 10/10 1230 м +15.0 +10.0 72 +14 +14 975.1
СЗ 3 16 км 10/10 1290 м +14.0 +10.0 77 +13 +13 975.1
З 2 16 км 10/8 1500 m
[Ac]
+14.0 +10.0 77 +14 +14 975.5
З 2 16 км 10/5 1800 m
[Ac]
+14.0 +10.0 77 +14 +14 975.8
З 2 16 км 10/8 1800 m
[Ac]
+13.0 +10.0 82 +12 +12 975.8
З 3 16 км 10/8 1800 m
[Ac]
+13.0 +10.0 82 +12 +12 976.1
З 2 16 км 10/8 1800 m
[Ac]
+12.0 +10.0 88 +11 +11 976.4
штиль 0 16 км 10/8 1800 m
[Ac]
+12.0 +10.0 88 +11 +11 976.4
штиль 0 16 км 10/8 1800 m
[Ac]
+12.0 +11.0 94 +11 +11 976.7
штиль 0 16 км 10/8 1650 m
[Ac]
+11.0 +11.0 100 +10 +10 976.7
штиль 0 16 км 10/10 750 м +11.0 +11.0 100 +10 +10 977.1
штиль 0 16 км 10/10 720 м +11.0 +11.0 100 +10 +10 977.1
штиль 0 16 км 10/10 630 м +11.0 +11.0 100 +10 +10 977.4
штиль 0 16 км 8/8 810 м +11.0 +11.0 100 +10 +10 977.7
штиль 0 16 км 10/8 1020 m
[Ac]
+11.0 +11.0 100 +10 +10 977.7
штиль 0 16 км 10/10 1080 м +11.0 +11.0 100 +10 +10 978.0
штиль 0 16 км 10/10 900 м +11.0 +11.0 100 +10 +10 978.0
штиль 0 16 км 8/8 720 м +10.0 +10.0 100 +9 +9 978.0
С 2 16 км 8/8 930 м +10.0 +10.0 100 +8 +8 978.3
штиль 0 16 км 8/8 930 м +10.0 +10.0 100 +9 +9 978.7
штиль 0 16 км 5/5 960 м +10.0 +10.0 100 +9 +9 978.7
штиль 0 16 км ясно +9.0 +9.0 100 +8 +8 978.7
штиль 0 16 км ясно +8.0 +8.0 100 +7 +7 978.7
штиль 0 16 км ясно +8.0 +8.0 100 +7 +7 979.0
штиль 0 16 км 8/8 30 м +7.0 +7.0 100 +6 +6 979.0
штиль 0 11 км 8/8 30 м +8.0 +8.0 100 +7 +7 979.0
штиль 0 10 км дымка 2/2 1110 м +7.0 +7.0 100 +6 +6 979.3
штиль 0 16 км 2/2 30 м +7.0 +7.0 100 +6 +6 979.3
штиль 0 16 км 5/5 930 м +7.0 +7.0 100 +6 +6 979.3
штиль 0 13 км 8/8 30 м +6.0 +6.0 100 +5 +5 979.3
штиль 0 16 км 5/5 30 м +6.0 +6.0 100 +5 +5 979.3
штиль 0 16 км 2/2 1230 м +6.0 +6.0 100 +5 +5 979.3
штиль 0 16 км 8/8 1020 м +6.0 +6.0 100 +5 +5 979.3
штиль 0 16 км 10/10 990 м +7.0 +7.0 100 +6 +6 979.3
Местоположение метеостанции Indiana County Airport: широта 40.6333 долгота -79.1000 высота над уровнем моря 429 м.
В архиве по умолчанию представлена погода в Индиане за последние 1-2 суток. Обновление информации о фактической погоде в базе происходит ежечасно! Архивные данные за месяц целиком и за предыдущие месяцы Вы можете получить, выбрав интересующий диапазон дат из раскрывающегося списка и нажав кнопку "Ввод!".
Внимание! Архив погоды МЕТАР в базе сайта по станциям, не включенным в климатический монитор, хранится не более 60 дней. Нет смысла пытаться выбрать более раннюю дату.
*Определитесь, кто Вы:
Внимание! Время в таблицах - местное (без учета летнего времени). Для получения всемирного времени необходимо вычесть поправку, которая равна -5 ч.
Смотрите также архив погоды в соседних городах и на ближайших метеорологических станциях:
Партнеры нашего сайта:      
Пояснения к столбцам:
  • Ветер - указаны скорость ветра в м/с - средняя за 10 мин, порывы в срок и между сроками (в фигурных скобках) и направление, откуда дует ветер: С - северный,
  • СВ - северо-восточный, В - восточный, ЮВ - юго-восточный, Ю - южный, ЮЗ - юго-западный, З - западный, СЗ - северо-западный.
  • Видимость - горизонтальная дальность видимости в метрах или километрах. При видимости от 1 до 10 км при отсутствии осадков обычно наблюдается дымка, при ухудшении видимости до 1 км и менее - туман. В сухую погоду видимость может ухудшаться дымом, пылью или мглою.
  • Явления - указаны атмосферные явления, наблюдавшиеся в срок или в последний час перед сроком; фигурными скобками обозначены явления, наблюдавшиеся между сроками (за 1-3 часа до срока); квадратными скобками обозначены град или гололедные отложения с указанием их диаметра в мм.
  • Облачность - указаны через наклонную черту общая и нижняя облачность в баллах и высота нижней границы облаков в метрах; квадратными скобками обозначены формы облаков: Ci - перистые, Cs - перисто-слоистые, Cc - перисто-кучевые, Ac - высококучевые, As - высокослоистые, Sc - слоисто-кучевые, Ns - слоисто-дождевые, Cu - кучевые, Cb - кучево-дождевые. Подробнее классификацию облаков см. в Атласе облаков (PDF).
  • T - Температура воздуха - температура, измеренная на высоте 2 м над землей.
  • Td - Температура точки росы - температура, при понижении до которой содержащийся в воздухе водяной пар достигнет насыщения.
  • f - Относительная влажность воздуха - влажноcть воздуха, измеренная на высоте 2 м над землей.
  • Te - Эффективная температура - температура, которую ощущает одетый по сезону человек в тени. Характеристика душности погоды. При расчете учитывается влияние влажности воздуха и скорости ветра на теплоощущения человека.
  • Tes - Эффективная температура на солнце - температура, которую ощущает человек, с поправкой на солнечный нагрев. Характеристика знойности погоды. Зависит от высоты солнца над горизонтом, облачности и скорости ветра. Ночью, в пасмурную погоду, а также при ветре 12 м/с и более поправка равна нулю.
  • P - Атмосферное давление - приведенное к уровню моря атмосферное давление.
  • Po - Атмосферное давление - измеренное на уровне метеостанции атмосферное давление.
  • Tmin - Минимальная температура - минимум температуры воздуха на высоте 2 м над землей.
  • Tmax - Максимальная температура - максимум температуры воздуха на высоте 2 м над землей.
  • R - Количество осадков - Количество выпавших осадков за период времени, мм. При наведении курсора мыши на число - период времени, за который выпало указанное количество осадков.
  • R24 - Количество осадков - Количество выпавших осадков за 24 часа, мм.
  • S - Снежный покров - Высота снежного покрова, см. При наведении курсора мыши на число - состояние снежного покрова и степень покрытия местности в баллах.